Flag for Canada Weather past 2 weeks in Welland, Ontario, Canada

Now
67 °F

Mild.


Feels Like: 67 °F
Forecast: 61 / 77 °F
Wind: 18 mph from South

Location: Port Colborne Airport

Current Time: May 27, 2015 at 12:49:14 AM

Latest Report: May 27, 2015 at 12:00 AM


Visibility: N/A

Pressure: 29.98 "Hg

Humidity: 74%

Dew point: 59 °F

Location of WellandLocation

Historic Weather in Welland — Graph

°F

Welland temperature yesterday

Maximum temperature yesterday: 68 °F (at 11:00 PM)
Minimum temperature yesterday: 56 °F (at 12:00 AM)
Average temperature yesterday: 61 °F

Past Weeks' High & Low Weather Summary

 TemperatureHumidityPressure
High73 °F (May 17, 5:00 PM)99% (May 18, 11:00 AM)30.51 "Hg (May 18, 11:00 AM)
Low38 °F (May 20, 8:00 AM)20% (May 22, 6:00 PM)29.80 "Hg (May 12, 2:00 AM)
Average53 °F74%30.13 "Hg
* Reported May 11 11:00 PM — May 26 11:00 PM, Welland, Weather by CustomWeather, © 2015

Note: Actual official high and low records may vary slightly from our data, if they occured in-between our weather recording intervals... More about our weather records

Advertising

Welland weather history for previous 24 hours

 ConditionsComfort  
Time TempWeatherWind HumidityBarometerVisibility
11:00 PM
Tue, May 26
68 °FMild.16 mph73%29.99 "HgN/A
10:00 PM67 °FMild.15 mph75%30.00 "HgN/A
9:00 PM64 °FMild.10 mph86%29.98 "HgN/A
8:00 PM67 °FMild.3 mph82%30.00 "HgN/A
7:00 PM62 °FCool.7 mph95%30.01 "HgN/A
6:00 PM64 °FMild.5 mph86%30.03 "HgN/A
5:00 PM64 °FMild.5 mph86%30.04 "HgN/A
4:00 PM65 °FMild.9 mph84%30.07 "HgN/A
3:00 PM64 °FMild.9 mph85%30.09 "HgN/A
2:00 PM62 °FCool.6 mph92%30.11 "HgN/A
1:00 PM63 °FMild.6 mph83%30.11 "HgN/A
12:00 PM62 °FCool.2 mph83%30.12 "HgN/A
11:00 AM59 °FCool.5 mph85%30.14 "HgN/A
10:00 AM58 °FCool.5 mph86%30.14 "HgN/A
9:00 AM56 °FCool.7 mph88%30.14 "HgN/A
8:00 AM58 °FCool.10 mph87%30.13 "HgN/A
7:00 AM56 °FCool.8 mph88%30.11 "HgN/A
6:00 AM57 °FCool.14 mph88%30.09 "HgN/A
5:00 AM58 °FCool.15 mph87%30.08 "HgN/A
4:00 AM59 °FCool.17 mph87%30.07 "HgN/A
3:00 AM57 °FCool.13 mph87%30.06 "HgN/A
2:00 AM57 °FCool.15 mph87%30.06 "HgN/A
1:00 AM56 °FCool.10 mph87%30.04 "HgN/A
12:00 AM56 °FCool.9 mph87%30.03 "HgN/A
Weather by CustomWeather, © 2015

See weather overviewHow to use our weather pages